Regional Weather Roundup
Issued by NWS

Home | Current Version | Previous Version | Text Only | Print | Product List | Glossary Off
Versions: 1 2 3 4 5 6 7 8 9 10 11 12 13 14 15 16 17 18 19 20 21 22 23 24 25 26 27 28 29 30 31 32 33 34 35 36 37 38 39 40 41 42 43 44 45 46 47 48 49 50

000
ASUS43 KIND 211800
RWRIN

WEATHER ROUNDUP FOR INDIANA
NATIONAL WEATHER SERVICE INDIANAPOLIS IN
200 PM EDT SAT OCT 21 2017

NOTE: "FAIR" INDICATES FEW OR NO CLOUDS BELOW 12,000 FEET WITH NO
SIGNIFICANT WEATHER AND/OR OBSTRUCTIONS TO VISIBILITY.

* - STATION DOES NOT REPORT WEATHER SUCH AS PRECIPITATION OR FOG.

+ - STATION NOT QUALITY CONTROLLED BY THE NATIONAL WEATHER SERVICE.
    USE DATA WITH CAUTION...ESPECIALLY DEWPOINT AND RELATIVE
    HUMIDITY OBSERVATIONS.

INZ001>003-010>013-019-020-211900-
NORTHWEST INDIANA

CITY           SKY/WX    TMP DP  RH WIND       PRES   REMARKS
GARY /AIRPORT/ MOSUNNY   75  52  43 S14       30.07F
MICHIGAN CITY+ CLOUDY    72  54  53 S8G16     30.10F
MONTICELLO +   MOSUNNY   73  52  46 S13G20    30.13F
6HR MIN TEMP:  54; 6HR MAX TEMP:  73;

RENSSELAER +   PTSUNNY   73  43  33 S18G24    30.11F

$$

LMZ046-743>745-211900-
SOUTHERN LAKE MICHIGAN

STATION/POSITION TIME  TEMP    WIND        PRES    WAVE
                       AIR SEA DIR/SP/G            HT
                 (UTC) (F)     (DEG/KT/KT) (MB)    (FT)
BURNS HARBOR     1740   71     190/ 13/ 24 1019.0F
MICHIGAN CITY    1730   70     170/ 17/ 21   N/A
5NW MICH CITY    1750   66 58  190/ 14/ 19   N/A     1

$$

INZ004-005-014>016-021>024-211900-
NORTH CENTRAL INDIANA

CITY           SKY/WX    TMP DP  RH WIND       PRES   REMARKS
ELKHART        SUNNY     73  46  38 S10       30.13F
GOSHEN         PTSUNNY   71  45  39 S14       30.14F
6HR MIN TEMP:  54; 6HR MAX TEMP:  72;

PERU/GRISSOM   PTSUNNY   71  52  50 S14       30.16F
6HR MIN TEMP:  52; 6HR MAX TEMP:  73;

SOUTH BEND     PTSUNNY   71  52  50 SW14      30.13S
6HR MIN TEMP:  57; 6HR MAX TEMP:  72; 6HR PCP: TRACE;


$$

INZ006>009-017-018-025>027-211900-
NORTHEAST INDIANA

CITY           SKY/WX    TMP DP  RH WIND       PRES   REMARKS
FORT WAYNE     PTSUNNY   73  46  38 S15       30.18F
6HR MIN TEMP:  48; 6HR MAX TEMP:  73;

KENDALLVILLE + PTSUNNY   73  47  38 S12G20    30.17F

$$

INZ028-029-035-036-043>045-051>053-211900-
WEST CENTRAL INDIANA

CITY           SKY/WX    TMP DP  RH WIND       PRES   REMARKS
LAFAYETTE      MOSUNNY   73  54  51 S12G17    30.13F
6HR MIN TEMP:  50; 6HR MAX TEMP:  73;

TERRE HAUTE    CLOUDY    71  53  52 S12       30.15F
6HR MIN TEMP:  46; 6HR MAX TEMP:  72;


$$

INZ030>032-037>040-046>048-054>057-064-065-211900-
CENTRAL INDIANA

CITY           SKY/WX    TMP DP  RH WIND       PRES   REMARKS
ANDERSON       CLOUDY    70  48  46 S8        30.20F
GREENWOOD *+   MOSUNNY   76  52  42 S9        30.20F
6HR MIN TEMP:  57; 6HR MAX TEMP:  76;

INDIANAPOLIS   PTSUNNY   72  49  44 S13       30.17F
6HR MIN TEMP:  53; 6HR MAX TEMP:  73;

-EAGLE CREEK   PTSUNNY   71  49  45 S8        30.17F
6HR MIN TEMP:  50; 6HR MAX TEMP:  72;

KOKOMO +       MOSUNNY   70  52  52 S10       30.17F
6HR MIN TEMP:  53; 6HR MAX TEMP:  70;

MT COMFORT *+  CLOUDY    72  55  56 S10       30.19F
SHELBYVILLE    MOSUNNY   72  48  42 S14       30.19F
6HR MIN TEMP:  51; 6HR MAX TEMP:  72;


$$

INZ033-034-041-042-049-050-058-059-211900-
EAST CENTRAL INDIANA

CITY           SKY/WX    TMP DP  RH WIND       PRES   REMARKS
MUNCIE         CLOUDY    72  45  37 SW12      30.19F
6HR MIN TEMP:  57; 6HR MAX TEMP:  74;

RICHMOND +     CLOUDY    70  46  43 SW6       30.23F

$$

INZ060-061-067>069-081>083-085>088-211900-
SOUTHWEST INDIANA

CITY           SKY/WX    TMP DP  RH WIND       PRES   REMARKS
EVANSVILLE     MOSUNNY   73  51  46 S7        30.16F
6HR MIN TEMP:  52; 6HR MAX TEMP:  74;

HUNTINGBURG +  MOSUNNY   71  52  50 S10       30.19F
6HR MIN TEMP:  53; 6HR MAX TEMP:  71;


$$

INZ062-063-066-070>080-084-089>092-211900-
SOUTH CENTRAL AND SOUTHEAST INDIANA

CITY           SKY/WX    TMP DP  RH WIND       PRES   REMARKS
BLOOMINGTON    MOSUNNY   73  50  44 S8        30.17F
6HR MIN TEMP:  50; 6HR MAX TEMP:  74;

MADISON *+     CLOUDY    72  45  37 S6        30.23F
SEYMOUR +      MOSUNNY   73  52  46 S8        30.20F

$$





USA.gov is the U.S. government's official web portal to all federal, state and local government web resources and services.